TimeEDT,TemperatureF,Dew PointF,Humidity,Sea Level PressureIn,VisibilityMPH,Wind Direction,Wind SpeedMPH,Gust SpeedMPH,PrecipitationIn,Events,Conditions,WindDirDegrees,DateUTC
12:56 AM,48.9,36.0,61,30.04,10.0,NW,3.5,-,N/A,,Overcast,320,2011-10-26 04:56:00
1:56 AM,50.0,36.0,59,30.03,10.0,NNW,4.6,-,N/A,,Overcast,330,2011-10-26 05:56:00
2:56 AM,50.0,35.1,57,30.01,10.0,NNW,6.9,-,N/A,,Overcast,330,2011-10-26 06:56:00
3:56 AM,48.0,36.0,63,30.02,10.0,NW,5.8,-,0.00,,Partly Cloudy,310,2011-10-26 07:56:00
4:56 AM,48.0,36.0,63,30.00,10.0,Calm,Calm,-,0.00,,Scattered Clouds,0,2011-10-26 08:56:00
5:56 AM,45.0,37.9,76,30.00,10.0,Calm,Calm,-,N/A,,Partly Cloudy,0,2011-10-26 09:56:00
6:56 AM,44.1,39.9,85,29.97,10.0,NNW,3.5,-,N/A,,Partly Cloudy,340,2011-10-26 10:56:00
7:56 AM,46.0,43.0,89,29.97,10.0,NNE,3.5,-,N/A,,Partly Cloudy,20,2011-10-26 11:56:00
8:56 AM,48.0,41.0,77,29.97,10.0,Calm,Calm,-,0.00,Rain,Light Rain,0,2011-10-26 12:56:00
9:56 AM,48.9,41.0,74,29.96,10.0,Calm,Calm,-,0.00,,Mostly Cloudy,0,2011-10-26 13:56:00
10:56 AM,50.0,43.0,77,29.92,10.0,ENE,3.5,-,0.00,,Scattered Clouds,70,2011-10-26 14:56:00
11:56 AM,53.6,44.6,72,29.88,10.0,SE,8.1,-,N/A,,Scattered Clouds,130,2011-10-26 15:56:00
12:56 PM,55.0,45.0,69,29.85,10.0,SE,4.6,-,N/A,,Scattered Clouds,130,2011-10-26 16:56:00
1:56 PM,57.0,48.0,72,29.81,10.0,SE,6.9,-,N/A,,Overcast,130,2011-10-26 17:56:00
2:13 PM,57.2,48.2,72,29.79,10.0,East,4.6,-,N/A,,Overcast,100,2011-10-26 18:13:00
2:56 PM,57.2,48.2,72,29.78,10.0,NE,8.1,-,N/A,,Overcast,50,2011-10-26 18:56:00
3:56 PM,57.9,46.9,67,29.77,10.0,NE,4.6,-,N/A,,Mostly Cloudy,40,2011-10-26 19:56:00
4:56 PM,57.0,46.0,67,29.79,10.0,North,8.1,-,N/A,,Overcast,10,2011-10-26 20:56:00
5:56 PM,55.0,46.0,72,29.78,10.0,NNE,6.9,-,N/A,,Overcast,20,2011-10-26 21:56:00
6:56 PM,54.0,46.0,75,29.77,10.0,Calm,Calm,-,N/A,,Overcast,0,2011-10-26 22:56:00
7:56 PM,52.0,46.0,80,29.79,10.0,Calm,Calm,-,N/A,,Overcast,0,2011-10-26 23:56:00
8:56 PM,53.1,46.0,77,29.78,10.0,NNE,3.5,-,N/A,,Overcast,20,2011-10-27 00:56:00
9:56 PM,51.1,46.0,83,29.78,10.0,NNE,4.6,-,0.00,Rain,Light Rain,20,2011-10-27 01:56:00
10:56 PM,51.1,46.0,83,29.77,10.0,Calm,Calm,-,0.00,,Overcast,0,2011-10-27 02:56:00
11:56 PM,50.0,45.0,83,29.76,10.0,Calm,Calm,-,N/A,,Overcast,0,2011-10-27 03:56:00